Location: Ciserano
(45.5833°N, 9.6000°E)
Time: 07:59:20
(UTC+00:00)

Cosmos 1295 Rocket - Pass Details

Date: 21 April 2021
Orbit: 944 x 993 km, 82.9° (Epoch: 13 May)

Event Time Altitude Azimuth Distance (km) Brightness Sun altitude
Rises 22:59:03 0° 356° (N) 3,679 8.6 -32.0°
Reaches altitude 10° 23:01:43 10° 3° (N) 2,735 7.7 -32.1°
Enters shadow 23:07:29 43° 70° (ENE) 1,357 5.2 -32.2°
